Weather History for Martha's Vineyard, MA

Change the Weather History Date:

Friday, February 15, 2013

  Actual Average Record
Temperature  
Mean Temperature 32 °F -  
Max Temperature 46 °F 39 °F 58 °F (1990)
Min Temperature 19 °F 22 °F -1 °F (1979)
Degree Days  
Heating Degree Days 32    
Moisture  
Dew Point 27 °F    
Average Humidity 94    
Maximum Humidity 100    
Minimum Humidity 71    
Precipitation  
Precipitation 0.00 in - - ()
Sea Level Pressure  
Sea Level Pressure 30.01 in    
Wind  
Wind Speed 3 mph (SSW)    
Max Wind Speed 16 mph    
Max Gust Speed 22 mph    
Visibility 4 miles    
Events Fog    
Averages and records for this station are not official NWS values.
T = Trace of Precipitation, MM = Missing Value Source: NWS Daily Summary

Daily Weather History Graph

Daily Weather History Graph

Search for Another Location

Airport:

Trip Planner

Search our weather history database for the weather conditions in past years. The results will help you decide how hot, cold, wet, or windy it might be!

Date:

Astronomy

Feb. 15, 2013 Rise Set
Actual Time 6:37 AM EST 5:16 PM EST
Civil Twilight 6:08 AM EST 5:44 PM EST
Nautical Twilight 5:36 AM EST 6:17 PM EST
Astronomical Twilight 5:04 AM EST 6:49 PM EST
Moon 9:06 AM EST (2/15) 11:19 PM EST (2/15)
Length of Visible Light 11h 36m
Length of Day
10h 39m
Waxing Crescent, 30% of the Moon is Illuminated
Feb 15
Waxing Crescent
Feb 17
First Quarter
Feb 25
Full
Mar 4
Last Quarter
Mar 11
New

Hourly Weather History & Observations

Time (EST) Temp. Windchill Dew Point Humidity Pressure Visibility Wind Dir Wind Speed Gust Speed Precip Events Conditions
12:48 AM 21.2 °F 16.4 °F 19.4 °F 93% 30.03 in 2.5 mi South 3.5 mph - N/A   Clear
12:53 AM 23.0 °F 17.0 °F 21.0 °F 92% 30.03 in 8.0 mi South 4.6 mph - N/A   Clear
1:53 AM 26.1 °F 21.9 °F 24.1 °F 92% 30.04 in 10.0 mi SSW 3.5 mph - N/A   Clear
2:31 AM 23.0 °F - 21.2 °F 93% 30.03 in 1.8 mi Calm Calm - N/A   Clear
2:41 AM 23.0 °F - 21.2 °F 93% 30.03 in 0.8 mi Calm Calm - N/A   Clear
2:53 AM 21.0 °F - 21.0 °F 100% 30.02 in 1.2 mi Calm Calm - N/A   Clear
2:58 AM 23.0 °F - 21.2 °F 93% 30.02 in 3.0 mi Calm Calm - N/A   Clear
3:24 AM 23.0 °F - 21.2 °F 93% 30.02 in 1.8 mi Calm Calm - N/A   Clear
3:34 AM 23.0 °F - 21.2 °F 93% 30.02 in 0.5 mi Calm Calm - N/A Fog Light Freezing Fog
3:43 AM 21.2 °F - 19.4 °F 93% 30.02 in 2.0 mi Calm Calm - N/A   Clear
3:46 AM 19.4 °F - 19.4 °F 100% 30.02 in 1.2 mi Calm Calm - N/A   Partly Cloudy
3:48 AM 19.4 °F - 19.4 °F 100% 30.02 in 0.8 mi Calm Calm - N/A   Mist
3:53 AM 21.0 °F - 19.9 °F 96% 30.03 in 0.2 mi Calm Calm - N/A Fog Light Freezing Fog
4:09 AM 21.2 °F - 21.2 °F 100% 30.02 in 1.0 mi Calm Calm - N/A   Mist
4:11 AM 21.2 °F - 21.2 °F 100% 30.02 in 2.0 mi Calm Calm - N/A   Partly Cloudy
4:19 AM 21.2 °F - 21.2 °F 100% 30.03 in 1.0 mi Calm Calm - N/A   Mist
4:27 AM 21.2 °F - 21.2 °F 100% 30.03 in 0.5 mi Calm Calm - N/A Fog Light Freezing Fog
4:33 AM 21.2 °F - 21.2 °F 100% 30.03 in 1.2 mi Calm Calm - N/A   Partly Cloudy
4:36 AM 21.2 °F - 21.2 °F 100% 30.03 in 3.0 mi Calm Calm - N/A   Partly Cloudy
4:53 AM 21.9 °F - 21.9 °F 100% 30.04 in 9.0 mi Calm Calm - N/A   Clear
5:46 AM 19.4 °F - 17.6 °F 93% 30.03 in 1.8 mi Calm Calm - N/A   Clear
5:53 AM 19.0 °F - 17.1 °F 92% 30.04 in 1.0 mi Calm Calm - N/A   Clear
6:02 AM 19.4 °F - 17.6 °F 93% 30.04 in 0.5 mi Calm Calm - N/A Fog Light Freezing Fog
6:33 AM 19.4 °F 14.3 °F 19.4 °F 100% 30.04 in 0.8 mi SSW 3.5 mph - N/A   Mist
6:37 AM 21.2 °F 14.9 °F 19.4 °F 93% 30.04 in 0.2 mi SSW 4.6 mph - N/A Fog Light Freezing Fog
6:44 AM 19.4 °F 14.3 °F 19.4 °F 100% 30.04 in 0.2 mi SSW 3.5 mph - N/A Fog Light Freezing Fog
6:53 AM 19.0 °F - 17.1 °F 92% 30.04 in 0.2 mi Calm Calm - N/A Fog Light Freezing Fog
7:07 AM 19.4 °F - 17.6 °F 93% 30.03 in 0.2 mi Calm Calm - N/A Fog Light Freezing Fog
7:27 AM 23.0 °F 18.4 °F 23.0 °F 100% 30.03 in 0.2 mi SSE 3.5 mph - N/A Fog Light Freezing Fog
7:30 AM 24.8 °F - 24.8 °F 100% 30.03 in 1.0 mi Calm Calm - N/A   Mist
7:32 AM 24.8 °F - 24.8 °F 100% 30.04 in 2.0 mi Calm Calm - N/A   Scattered Clouds
7:39 AM 24.8 °F - 24.8 °F 100% 30.04 in 2.5 mi Calm Calm - N/A   Scattered Clouds
7:49 AM 28.4 °F 23.3 °F 28.4 °F 100% 30.04 in 1.8 mi South 4.6 mph - N/A   Partly Cloudy
7:53 AM 28.9 °F 22.8 °F 28.9 °F 100% 30.04 in 2.0 mi South 5.8 mph - N/A   Clear
8:03 AM 35.6 °F 29.2 °F 33.8 °F 93% 30.03 in 4.0 mi South 8.1 mph - N/A   Clear
8:53 AM 39.9 °F 32.5 °F 37.9 °F 93% 30.05 in 9.0 mi SSW 12.7 mph - N/A   Clear
9:53 AM 43.0 °F 35.4 °F 37.0 °F 80% 30.06 in 10.0 mi SSW 16.1 mph - N/A   Clear
10:25 AM 44.6 °F 37.8 °F 37.4 °F 76% 30.06 in 10.0 mi SSW 15.0 mph 19.6 mph N/A   Mostly Cloudy
10:50 AM 44.6 °F 38.1 °F 37.4 °F 76% 30.06 in 10.0 mi SSW 13.8 mph - N/A   Partly Cloudy
10:53 AM 45.0 °F 38.5 °F 37.9 °F 76% 30.06 in 10.0 mi SSW 13.8 mph - N/A   Partly Cloudy
11:53 AM 45.0 °F 37.9 °F 37.9 °F 76% 30.03 in 10.0 mi SSW 16.1 mph - N/A   Clear
12:53 PM 46.0 °F 39.9 °F 37.0 °F 71% 30.01 in 10.0 mi SSW 13.8 mph 21.9 mph N/A   Clear
1:53 PM 45.0 °F 38.5 °F 37.0 °F 74% 30.00 in 10.0 mi SSW 13.8 mph - N/A   Clear
2:53 PM 45.0 °F 38.9 °F 36.0 °F 71% 29.99 in 10.0 mi SSW 12.7 mph - N/A   Clear
3:53 PM 44.1 °F 38.1 °F 36.0 °F 73% 29.98 in 10.0 mi SW 11.5 mph - N/A   Clear
4:53 PM 39.9 °F 35.1 °F 36.0 °F 86% 29.98 in 10.0 mi South 6.9 mph - N/A   Clear
5:53 PM 39.0 °F 32.3 °F 36.0 °F 89% 29.98 in 10.0 mi South 10.4 mph - N/A   Clear
6:53 PM 39.9 °F 32.5 °F 36.0 °F 86% 29.97 in 10.0 mi South 12.7 mph - N/A   Clear
7:53 PM 37.9 °F 32.1 °F 36.0 °F 93% 29.98 in 10.0 mi SSW 8.1 mph - N/A   Clear
8:53 PM 36.0 °F - 36.0 °F 100% 29.97 in 9.0 mi Calm Calm - N/A   Clear
9:41 PM 30.2 °F - 30.2 °F 100% 29.96 in 1.8 mi Calm Calm - N/A   Clear
9:51 PM 30.2 °F - 30.2 °F 100% 29.97 in 0.8 mi Calm Calm - N/A   Clear
9:53 PM 30.9 °F - 30.9 °F 100% 29.97 in 0.8 mi Calm Calm - N/A   Clear
10:02 PM 28.4 °F - 28.4 °F 100% 29.97 in 2.0 mi Calm Calm - N/A   Clear
10:11 PM 28.4 °F - 28.4 °F 100% 29.97 in 5.0 mi Calm Calm - N/A   Clear
10:23 PM 28.4 °F - 28.4 °F 100% 29.97 in 2.0 mi Calm Calm - N/A   Partly Cloudy
10:25 PM 30.2 °F - 28.4 °F 93% 29.96 in 1.0 mi Calm Calm - N/A   Mist
10:32 PM 28.4 °F - 28.4 °F 100% 29.96 in 0.5 mi Calm Calm - N/A Fog Light Freezing Fog
10:51 PM 26.6 °F - 26.6 °F 100% 29.95 in 1.0 mi Calm Calm - N/A   Clear
10:53 PM 28.0 °F - 27.0 °F 96% 29.96 in 1.0 mi Calm Calm - N/A   Clear
10:58 PM 28.4 °F - 28.4 °F 100% 29.95 in 3.0 mi Calm Calm - N/A   Clear
11:27 PM 28.4 °F - 28.4 °F 100% 29.95 in 1.2 mi Calm Calm - N/A   Clear
11:34 PM 26.6 °F - 26.6 °F 100% 29.95 in 0.2 mi Calm Calm - N/A Fog Light Freezing Fog
11:44 PM 26.6 °F - 26.6 °F 100% 29.95 in 0.5 mi Calm Calm - N/A Fog Light Freezing Fog
11:53 PM 30.0 °F - 30.0 °F 100% 29.95 in 0.8 mi Calm Calm - N/A   Mist
11:59 PM 28.4 °F - 28.4 °F 100% 29.95 in 1.0 mi Calm Calm - N/A   Clear